TimeAST,TemperatureF,Dew PointF,Humidity,Sea Level PressureIn,VisibilityMPH,Wind Direction,Wind SpeedMPH,Gust SpeedMPH,PrecipitationIn,Events,Conditions,WindDirDegrees,DateUTC
12:00 AM,82.4,75.2,79,29.89,5.0,NE,4.6,-,N/A,,Unknown,40,2011-10-09 21:00:00
12:30 AM,82.4,73.4,74,29.89,5.0,Variable,2.3,-,N/A,,Unknown,0,2011-10-09 21:30:00
1:00 AM,82.4,73.4,74,29.89,4.3,Variable,2.3,-,N/A,,Unknown,0,2011-10-09 22:00:00
1:30 AM,82.4,73.4,74,29.86,4.3,Variable,2.3,-,N/A,,Unknown,0,2011-10-09 22:30:00
2:00 AM,80.6,73.4,79,29.86,4.3,ESE,1.2,-,N/A,,Unknown,120,2011-10-09 23:00:00
2:30 AM,82.4,73.4,74,29.86,4.3,SE,2.3,-,N/A,,Unknown,140,2011-10-09 23:30:00
3:00 AM,81,73,70,29.86,4,SSE,2.3,,,,Haze,160,2011-10-10 00:00:00
3:00 AM,80.6,73.4,79,29.86,4.3,SSE,2.3,-,N/A,,Unknown,160,2011-10-10 00:00:00
3:30 AM,80.6,73.4,79,29.86,4.3,Variable,2.3,-,N/A,,Unknown,0,2011-10-10 00:30:00
4:00 AM,80.6,73.4,79,29.86,4.3,SSW,2.3,-,N/A,,Unknown,200,2011-10-10 01:00:00
4:30 AM,78.8,73.4,83,29.86,4.3,SW,4.6,-,N/A,,Unknown,220,2011-10-10 01:30:00
5:00 AM,78.8,73.4,83,29.86,4.3,Variable,2.3,-,N/A,,Unknown,0,2011-10-10 02:00:00
5:30 AM,78.8,73.4,83,29.86,3.7,Variable,2.3,-,N/A,,Haze,0,2011-10-10 02:30:00
6:00 AM,80.6,73.4,79,29.86,3.7,WSW,3.5,-,N/A,,Unknown,240,2011-10-10 03:00:00
6:30 AM,80.6,73.4,79,29.89,3.7,SW,3.5,-,N/A,,Unknown,230,2011-10-10 03:30:00
7:00 AM,82.4,73.4,74,29.89,4.3,SW,4.6,-,N/A,,Unknown,230,2011-10-10 04:00:00
7:30 AM,84.2,73.4,70,29.92,4.3,SW,4.6,-,N/A,,Unknown,220,2011-10-10 04:30:00
8:00 AM,86.0,73.4,66,29.92,4.3,SSW,4.6,-,N/A,,Unknown,200,2011-10-10 05:00:00
8:30 AM,87.8,73.4,62,29.92,4.3,SSW,4.6,-,N/A,,Unknown,210,2011-10-10 05:30:00
9:00 AM,89,71,47,29.94,4,SW,3.5,,,,Smoke,230,2011-10-10 06:00:00
9:00 AM,89.6,71.6,55,29.92,4.3,SW,3.5,-,N/A,,Unknown,230,2011-10-10 06:00:00
9:30 AM,91.4,68.0,46,29.92,4.3,South,4.6,-,N/A,,Unknown,190,2011-10-10 06:30:00
10:00 AM,93.2,66.2,41,29.92,4.3,SSW,5.8,-,N/A,,Unknown,210,2011-10-10 07:00:00
10:30 AM,93.2,64.4,38,29.92,4.3,WSW,3.5,-,N/A,,Unknown,240,2011-10-10 07:30:00
11:00 AM,96.8,66.2,37,29.89,4.3,WNW,3.5,-,N/A,,Unknown,300,2011-10-10 08:00:00
11:30 AM,95.0,68.0,41,29.89,5.0,East,9.2,-,N/A,,Unknown,90,2011-10-10 08:30:00
12:00 PM,95.0,66.2,39,29.89,-9999.0,ESE,4.6,-,N/A,,Clear,120,2011-10-10 09:00:00
12:30 PM,95.0,66.2,39,29.86,-9999.0,East,6.9,-,N/A,,Clear,90,2011-10-10 09:30:00
1:00 PM,95.0,66.2,39,29.86,6.2,ESE,11.5,-,N/A,,Partly Cloudy,110,2011-10-10 10:00:00
1:30 PM,93.2,68.0,44,29.83,6.2,East,9.2,-,N/A,,Partly Cloudy,90,2011-10-10 10:30:00
2:00 PM,93.2,64.4,38,29.83,6.2,East,9.2,-,N/A,,Partly Cloudy,90,2011-10-10 11:00:00
2:30 PM,93.2,60.8,34,29.83,6.2,East,11.5,-,N/A,,Partly Cloudy,100,2011-10-10 11:30:00
3:00 PM,92,61,26,29.84,6,East,10.4,,,,Scattered Clouds,100,2011-10-10 12:00:00
3:00 PM,93.2,60.8,34,29.83,6.2,East,10.4,-,N/A,,Partly Cloudy,100,2011-10-10 12:00:00
3:30 PM,93.2,60.8,34,29.83,-9999.0,ESE,8.1,-,N/A,,Clear,120,2011-10-10 12:30:00
4:00 PM,91.4,62.6,38,29.83,-9999.0,East,9.2,-,N/A,,Clear,90,2011-10-10 13:00:00
4:30 PM,91.4,66.2,43,29.83,-9999.0,ESE,8.1,-,N/A,,Clear,120,2011-10-10 13:30:00
5:00 PM,89.6,66.2,46,29.80,-9999.0,ESE,8.1,-,N/A,,Clear,120,2011-10-10 14:00:00
5:30 PM,89.6,64.4,43,29.83,-9999.0,SE,5.8,-,N/A,,Clear,130,2011-10-10 14:30:00
6:00 PM,89.6,68.0,49,29.83,-9999.0,ESE,4.6,-,N/A,,Clear,110,2011-10-10 15:00:00
6:30 PM,87.8,69.8,55,29.83,-9999.0,East,5.8,-,N/A,,Clear,100,2011-10-10 15:30:00
7:00 PM,87.8,68.0,52,29.83,-9999.0,East,4.6,-,N/A,,Clear,100,2011-10-10 16:00:00
7:30 PM,87.8,69.8,55,29.86,-9999.0,East,4.6,-,N/A,,Clear,80,2011-10-10 16:30:00
8:00 PM,87.8,69.8,55,29.86,-9999.0,ENE,4.6,-,N/A,,Clear,70,2011-10-10 17:00:00
8:30 PM,87.8,68.0,52,29.86,-9999.0,NE,5.8,-,N/A,,Clear,40,2011-10-10 17:30:00
9:00 PM,87,68,44,29.89,6,NNE,5.8,,,,,30,2011-10-10 18:00:00
9:00 PM,87.8,68.0,52,29.89,-9999.0,NNE,5.8,-,N/A,,Clear,30,2011-10-10 18:00:00
9:30 PM,87.8,69.8,55,29.89,-9999.0,NNE,8.1,-,N/A,,Clear,20,2011-10-10 18:30:00
10:00 PM,87.8,71.6,58,29.89,-9999.0,NNE,4.6,-,N/A,,Clear,30,2011-10-10 19:00:00
10:30 PM,86.0,73.4,66,29.86,-9999.0,North,6.9,-,N/A,,Clear,10,2011-10-10 19:30:00
11:00 PM,86.0,73.4,66,29.86,-9999.0,North,6.9,-,N/A,,Clear,350,2011-10-10 20:00:00
11:30 PM,86.0,75.2,70,29.86,-9999.0,NNW,8.1,-,N/A,,Clear,330,2011-10-10 20:30:00